Location: Olsztyn
(53.7767°N, 20.4765°E)
Time: 17:22:57
(UTC+01:00)

N. Korean satellite - Visible Passes

Search period start: 03 December 2022 00:00
Search period end: 13 December 2022 00:00
Orbit: 421 x 453 km, 97.3° (Epoch: 02 December)

Date Brightness Start Highest point End Pass type
(mag) Time Alt. Az. Time Alt. Az. Time Alt. Az.
03 Dec 6.5 05:06:10 10° NNE 05:09:37 74° ESE 05:13:00 10° S visible
03 Dec 8.3 06:39:58 10° NNW 06:41:38 13° WNW 06:43:17 10° W visible
03 Dec 9.8 17:16:09 10° WSW 17:17:42 13° W 17:19:16 10° WNW visible
04 Dec 8.6 04:27:38 10° NE 04:30:37 27° E 04:33:33 10° SSE visible
04 Dec 7.3 06:00:07 10° N 06:03:07 28° WNW 06:06:04 10° SW visible
04 Dec 8.6 16:35:28 10° SSW 16:38:30 30° W 16:41:35 10° NNW visible
05 Dec 9.9 03:50:20 10° ENE 03:51:23 11° E 03:52:25 10° ESE visible
05 Dec 6.2 05:20:56 10° N 05:24:22 75° WNW 05:27:44 10° SSW visible
06 Dec 7.8 04:42:09 10° NNE 04:45:23 38° E 04:48:34 10° SSE visible
06 Dec 7.7 06:15:04 10° NNW 06:17:42 21° WNW 06:20:18 10° WSW visible
06 Dec 9.2 16:50:33 10° SW 16:53:16 22° W 16:55:59 10° NW visible
07 Dec 9.5 04:04:02 10° NE 04:06:09 15° E 04:08:15 10° SE visible
07 Dec 6.5 05:35:37 10° N 05:38:57 50° WNW 05:42:13 10° SSW visible
07 Dec 7.2 16:10:44 10° S 16:14:06 57° W 16:17:30 10° NNW visible
08 Dec 7.0 04:56:36 10° NNE 04:59:58 56° E 05:03:17 10° S visible
08 Dec 8.0 06:30:00 10° NNW 06:32:06 16° WNW 06:34:12 10° W visible
08 Dec 9.6 17:05:44 10° SW 17:07:54 16° W 17:10:04 10° NW visible
09 Dec 9.0 04:18:05 10° NE 04:20:45 21° E 04:23:23 10° SE visible
09 Dec 6.9 05:50:13 10° N 05:53:22 35° WNW 05:56:28 10° SW visible
09 Dec 8.0 16:25:22 10° S 16:28:35 39° W 16:31:50 10° NNW visible
10 Dec 6.3 05:10:58 10° NNE 05:14:24 83° ESE 05:17:45 10° SSW visible
10 Dec 8.3 06:45:03 10° NW 06:46:21 12° WNW 06:47:38 10° W visible
10 Dec 9.9 17:21:14 10° WSW 17:22:25 11° W 17:23:36 10° WNW visible
11 Dec 8.4 04:32:10 10° NNE 04:35:11 29° E 04:38:09 10° SSE visible
11 Dec 7.4 06:04:45 10° N 06:07:37 25° WNW 06:10:26 10° WSW visible
11 Dec 8.8 16:39:59 10° SSW 16:42:57 28° W 16:45:58 10° NW visible
12 Dec 9.8 03:54:21 10° ENE 03:55:43 12° E 03:57:04 10° ESE visible
12 Dec 6.2 05:25:16 10° N 05:28:39 67° WNW 05:31:58 10° SSW visible
12 Dec 6.6 16:00:17 10° S 16:03:41 77° WSW 16:07:08 10° NNW visible
